Time,TemperatureF,DewpointF,PressureIn,WindDirection,WindDirectionDegrees,WindSpeedMPH,WindSpeedGustMPH,Humidity,HourlyPrecipIn,Conditions,Clouds,dailyrainin,SoftwareType,DateUTC
2013-02-04 00:02:00,-2.0,-6.0,-100.00,NE,45,1.0,1.0,80,0.00,,,0.00,,2013-02-04 06:02:00,
2013-02-04 00:11:00,-2.0,-6.0,-100.00,ENE,70,0.0,1.0,80,0.00,,,0.00,,2013-02-04 06:11:00,
2013-02-04 00:21:00,-2.0,-6.0,-100.00,NE,45,1.0,1.0,80,0.00,,,0.00,,2013-02-04 06:21:00,
2013-02-04 00:31:00,-2.0,-6.0,-100.00,ENE,75,1.0,1.0,80,0.00,,,0.00,,2013-02-04 06:31:00,
2013-02-04 00:41:00,-2.0,-6.0,-100.00,East,95,1.0,1.0,80,0.00,,,0.00,,2013-02-04 06:41:00,
2013-02-04 00:51:00,-2.0,-6.0,-100.00,East,80,2.0,2.0,80,0.00,,,0.00,,2013-02-04 06:51:00,
2013-02-04 01:02:00,-1.0,-6.0,-100.00,ENE,75,1.0,2.0,79,0.00,,,0.00,,2013-02-04 07:02:00,
2013-02-04 01:11:00,-1.0,-6.0,-100.00,East,80,1.0,2.0,79,0.00,,,0.00,,2013-02-04 07:11:00,
2013-02-04 01:21:00,-1.0,-6.0,-100.00,NE,55,1.0,3.0,79,0.00,,,0.00,,2013-02-04 07:21:00,
2013-02-04 01:31:00,-1.0,-6.0,-100.00,East,85,1.0,1.0,79,0.00,,,0.00,,2013-02-04 07:31:00,
2013-02-04 01:41:00,-1.0,-6.0,-100.00,ESE,115,1.0,2.0,79,0.00,,,0.00,,2013-02-04 07:41:00,
2013-02-04 01:51:00,-1.0,-6.0,-100.00,South,175,2.0,2.0,78,0.00,,,0.00,,2013-02-04 07:51:00,
2013-02-04 02:01:00,-1.0,-6.0,-100.00,South,180,3.0,3.0,78,0.00,,,0.00,,2013-02-04 08:01:00,
2013-02-04 02:11:00,-1.0,-6.0,-100.00,South,175,3.0,4.0,78,0.00,,,0.00,,2013-02-04 08:11:00,
2013-02-04 02:21:00,-1.0,-6.0,-100.00,South,170,4.0,4.0,78,0.00,,,0.00,,2013-02-04 08:21:00,
2013-02-04 02:31:00,0.0,-6.0,-100.00,South,175,3.0,4.0,78,0.00,,,0.00,,2013-02-04 08:31:00,
2013-02-04 02:42:00,0.0,-6.0,-100.00,SSW,195,4.0,4.0,78,0.00,,,0.00,,2013-02-04 08:42:00,
2013-02-04 02:52:00,0.0,-6.0,-100.00,South,185,4.0,5.0,78,0.00,,,0.00,,2013-02-04 08:52:00,
2013-02-04 03:02:00,0.0,-6.0,-100.00,South,175,3.0,4.0,78,0.00,,,0.00,,2013-02-04 09:02:00,
2013-02-04 03:11:00,0.0,-6.0,-100.00,South,185,3.0,4.0,78,0.00,,,0.00,,2013-02-04 09:11:00,
2013-02-04 03:21:00,0.0,-6.0,-100.00,South,180,2.0,4.0,78,0.00,,,0.00,,2013-02-04 09:21:00,
2013-02-04 03:31:00,0.0,-6.0,-100.00,South,190,3.0,3.0,78,0.00,,,0.00,,2013-02-04 09:31:00,
2013-02-04 03:41:00,0.0,-4.0,-100.00,SW,215,4.0,5.0,78,0.00,,,0.00,,2013-02-04 09:41:00,
2013-02-04 03:51:00,0.0,-4.0,-100.00,SSW,200,4.0,4.0,78,0.00,,,0.00,,2013-02-04 09:51:00,
2013-02-04 04:01:00,1.0,-4.0,-100.00,SSE,165,4.0,5.0,78,0.00,,,0.00,,2013-02-04 10:01:00,
2013-02-04 04:11:00,1.0,-4.0,-100.00,South,175,3.0,4.0,78,0.00,,,0.00,,2013-02-04 10:11:00,
2013-02-04 04:21:00,1.0,-4.0,-100.00,SSW,195,3.0,4.0,77,0.00,,,0.00,,2013-02-04 10:21:00,
2013-02-04 04:32:00,1.0,-4.0,-100.00,SSE,160,3.0,4.0,77,0.00,,,0.00,,2013-02-04 10:32:00,
2013-02-04 04:41:00,1.0,-4.0,-100.00,SSE,150,4.0,4.0,77,0.00,,,0.00,,2013-02-04 10:41:00,
2013-02-04 04:51:00,1.0,-4.0,-100.00,SSE,165,4.0,5.0,77,0.00,,,0.00,,2013-02-04 10:51:00,
2013-02-04 05:02:00,1.0,-4.0,-100.00,South,175,4.0,6.0,77,0.00,,,0.00,,2013-02-04 11:02:00,
2013-02-04 05:11:00,1.0,-4.0,-100.00,South,175,5.0,6.0,77,0.00,,,0.00,,2013-02-04 11:11:00,
2013-02-04 05:22:00,1.0,-4.0,-100.00,South,180,6.0,6.0,77,0.00,,,0.00,,2013-02-04 11:22:00,
2013-02-04 05:32:00,2.0,-4.0,-100.00,South,170,6.0,7.0,77,0.00,,,0.00,,2013-02-04 11:32:00,
2013-02-04 05:42:00,2.0,-4.0,-100.00,SSE,165,6.0,8.0,77,0.00,,,0.00,,2013-02-04 11:42:00,
2013-02-04 05:52:00,2.0,-4.0,-100.00,South,170,6.0,8.0,77,0.00,,,0.00,,2013-02-04 11:52:00,
2013-02-04 06:02:00,2.0,-4.0,-100.00,SSE,165,6.0,8.0,77,0.00,,,0.00,,2013-02-04 12:02:00,
2013-02-04 06:12:00,2.0,-4.0,-100.00,South,170,9.0,9.0,77,0.00,,,0.00,,2013-02-04 12:12:00,
2013-02-04 06:21:00,2.0,-4.0,-100.00,SSE,165,8.0,11.0,77,0.00,,,0.00,,2013-02-04 12:21:00,
2013-02-04 06:32:00,2.0,-4.0,-100.00,South,175,7.0,11.0,77,0.00,,,0.00,,2013-02-04 12:32:00,
2013-02-04 06:42:00,2.0,-4.0,-100.00,South,175,8.0,10.0,77,0.00,,,0.00,,2013-02-04 12:42:00,
2013-02-04 06:52:00,2.0,-2.0,-100.00,South,175,9.0,11.0,78,0.00,,,0.00,,2013-02-04 12:52:00,
2013-02-04 07:02:00,2.0,-2.0,-100.00,SSE,165,7.0,10.0,78,0.00,,,0.00,,2013-02-04 13:02:00,
2013-02-04 07:12:00,2.0,-2.0,-100.00,SSE,160,8.0,10.0,78,0.00,,,0.00,,2013-02-04 13:12:00,
2013-02-04 07:21:00,2.0,-2.0,-100.00,SSE,160,11.0,12.0,78,0.00,,,0.00,,2013-02-04 13:21:00,
2013-02-04 07:33:00,2.0,-2.0,-100.00,South,170,9.0,13.0,78,0.00,,,0.00,,2013-02-04 13:33:00,
2013-02-04 07:42:00,2.0,-2.0,-100.00,SSE,165,7.0,11.0,78,0.00,,,0.00,,2013-02-04 13:42:00,
2013-02-04 07:51:00,2.0,-2.0,-100.00,SSE,160,10.0,11.0,78,0.00,,,0.00,,2013-02-04 13:51:00,
2013-02-04 08:03:00,2.0,-2.0,-100.00,SE,145,11.0,14.0,78,0.00,,,0.00,,2013-02-04 14:03:00,
2013-02-04 08:11:00,2.0,-2.0,-100.00,SSE,160,12.0,16.0,78,0.00,,,0.00,,2013-02-04 14:11:00,
2013-02-04 08:22:00,2.0,-2.0,-100.00,SSE,150,7.0,12.0,78,0.00,,,0.00,,2013-02-04 14:22:00,
2013-02-04 08:32:00,3.0,-2.0,-100.00,South,170,7.0,12.0,78,0.00,,,0.00,,2013-02-04 14:32:00,
2013-02-04 08:42:00,3.0,-2.0,-100.00,South,185,8.0,11.0,78,0.00,,,0.00,,2013-02-04 14:42:00,
2013-02-04 08:52:00,3.0,-2.0,-100.00,South,170,9.0,13.0,78,0.00,,,0.00,,2013-02-04 14:52:00,
2013-02-04 09:03:00,3.0,-2.0,-100.00,SSE,165,9.0,13.0,78,0.00,,,0.00,,2013-02-04 15:03:00,
2013-02-04 09:12:00,3.0,-2.0,-100.00,SSE,165,10.0,14.0,78,0.00,,,0.00,,2013-02-04 15:12:00,
2013-02-04 09:23:00,3.0,-2.0,-100.00,SSE,165,11.0,14.0,78,0.00,,,0.00,,2013-02-04 15:23:00,
2013-02-04 09:33:00,4.0,-2.0,-100.00,SSE,160,11.0,15.0,78,0.00,,,0.00,,2013-02-04 15:33:00,
2013-02-04 09:43:00,4.0,-2.0,-100.00,SSE,160,12.0,17.0,78,0.00,,,0.00,,2013-02-04 15:43:00,
2013-02-04 09:52:00,4.0,-2.0,-100.00,SE,140,13.0,16.0,78,0.00,,,0.00,,2013-02-04 15:52:00,
2013-02-04 10:02:00,4.0,0.0,-100.00,SSE,155,10.0,17.0,78,0.00,,,0.00,,2013-02-04 16:02:00,
2013-02-04 10:11:00,4.0,0.0,-100.00,SSE,155,11.0,16.0,77,0.00,,,0.00,,2013-02-04 16:11:00,
2013-02-04 10:22:00,5.0,0.0,-100.00,SSE,165,12.0,14.0,76,0.00,,,0.00,,2013-02-04 16:22:00,
2013-02-04 10:32:00,5.0,0.0,-100.00,SSE,160,10.0,16.0,77,0.00,,,0.00,,2013-02-04 16:32:00,
2013-02-04 10:42:00,5.0,0.0,-100.00,SSE,160,16.0,18.0,76,0.00,,,0.00,,2013-02-04 16:42:00,
2013-02-04 10:51:00,5.0,0.0,-100.00,SSE,160,13.0,20.0,75,0.00,,,0.00,,2013-02-04 16:51:00,
2013-02-04 11:02:00,6.0,0.0,-100.00,SSE,160,12.0,18.0,75,0.00,,,0.00,,2013-02-04 17:02:00,
2013-02-04 11:11:00,6.0,0.0,-100.00,SSE,165,15.0,18.0,74,0.00,,,0.00,,2013-02-04 17:11:00,
2013-02-04 11:21:00,6.0,0.0,-100.00,SSE,165,16.0,18.0,74,0.00,,,0.00,,2013-02-04 17:21:00,
2013-02-04 11:31:00,6.0,0.0,-100.00,SSE,165,16.0,18.0,74,0.00,,,0.00,,2013-02-04 17:31:00,
2013-02-04 11:42:00,6.0,0.0,-100.00,SSE,165,16.0,18.0,74,0.00,,,0.00,,2013-02-04 17:42:00,
2013-02-04 11:51:00,7.0,0.0,-100.00,SSE,165,17.0,20.0,71,0.00,,,0.00,,2013-02-04 17:51:00,
2013-02-04 12:03:00,7.0,0.0,-100.00,SSE,160,16.0,21.0,71,0.00,,,0.00,,2013-02-04 18:03:00,
2013-02-04 12:11:00,8.0,0.0,-100.00,SSE,155,18.0,21.0,71,0.00,,,0.00,,2013-02-04 18:11:00,
2013-02-04 12:22:00,8.0,0.0,-100.00,SSE,155,18.0,21.0,71,0.00,,,0.00,,2013-02-04 18:22:00,
2013-02-04 12:32:00,8.0,0.0,-100.00,SSE,155,18.0,21.0,71,0.00,,,0.00,,2013-02-04 18:32:00,
2013-02-04 12:42:00,8.0,0.0,-100.00,SSE,155,18.0,21.0,71,0.00,,,0.00,,2013-02-04 18:42:00,
2013-02-04 12:52:00,9.0,1.0,-100.00,SSE,165,20.0,24.0,71,0.00,,,0.00,,2013-02-04 18:52:00,
2013-02-04 13:02:00,9.0,1.0,-100.00,SSE,165,17.0,23.0,71,0.00,,,0.00,,2013-02-04 19:02:00,
2013-02-04 13:11:00,9.0,1.0,-100.00,South,170,18.0,22.0,72,0.00,,,0.00,,2013-02-04 19:11:00,
2013-02-04 13:22:00,9.0,3.0,-100.00,SSE,160,18.0,24.0,72,0.00,,,0.00,,2013-02-04 19:22:00,
2013-02-04 13:32:00,9.0,3.0,-100.00,SSE,165,19.0,25.0,72,0.00,,,0.00,,2013-02-04 19:32:00,
2013-02-04 13:41:00,9.0,3.0,-100.00,SSE,160,20.0,27.0,73,0.00,,,0.00,,2013-02-04 19:41:00,
2013-02-04 13:51:00,10.0,3.0,-100.00,SSE,165,21.0,26.0,73,0.00,,,0.00,,2013-02-04 19:51:00,
2013-02-04 14:02:00,9.0,3.0,-100.00,SSE,155,21.0,26.0,73,0.00,,,0.00,,2013-02-04 20:02:00,
2013-02-04 14:12:00,10.0,3.0,-100.00,SSE,155,22.0,26.0,74,0.00,,,0.00,,2013-02-04 20:12:00,
2013-02-04 14:21:00,10.0,3.0,-100.00,SSE,155,21.0,26.0,74,0.00,,,0.00,,2013-02-04 20:21:00,
2013-02-04 14:32:00,10.0,3.0,-100.00,SSE,155,19.0,26.0,75,0.00,,,0.00,,2013-02-04 20:32:00,
2013-02-04 14:42:00,10.0,3.0,-100.00,SSE,165,21.0,27.0,75,0.00,,,0.00,,2013-02-04 20:42:00,
2013-02-04 14:52:00,10.0,3.0,-100.00,SE,145,22.0,26.0,75,0.00,,,0.00,,2013-02-04 20:52:00,
2013-02-04 15:02:00,9.0,3.0,-100.00,SSE,150,23.0,27.0,76,0.00,,,0.00,,2013-02-04 21:02:00,
2013-02-04 15:11:00,9.0,3.0,-100.00,SSE,150,24.0,29.0,76,0.00,,,0.00,,2013-02-04 21:11:00,
2013-02-04 15:22:00,9.0,3.0,-100.00,SSE,150,22.0,30.0,76,0.00,,,0.00,,2013-02-04 21:22:00,
2013-02-04 15:31:00,9.0,3.0,-100.00,SSE,155,22.0,27.0,77,0.00,,,0.00,,2013-02-04 21:31:00,
2013-02-04 15:42:00,9.0,5.0,-100.00,SSE,155,19.0,28.0,79,0.00,,,0.00,,2013-02-04 21:42:00,
2013-02-04 15:51:00,9.0,5.0,-100.00,SSE,150,20.0,25.0,80,0.00,,,0.00,,2013-02-04 21:51:00,
2013-02-04 16:02:00,9.0,5.0,-100.00,SSE,155,22.0,27.0,82,0.00,,,0.00,,2013-02-04 22:02:00,
2013-02-04 16:12:00,9.0,5.0,-100.00,SE,145,20.0,27.0,83,0.00,,,0.00,,2013-02-04 22:12:00,
2013-02-04 16:21:00,9.0,5.0,-100.00,SE,140,21.0,27.0,84,0.00,,,0.00,,2013-02-04 22:21:00,
2013-02-04 16:32:00,8.0,5.0,-100.00,SE,145,21.0,30.0,85,0.00,,,0.00,,2013-02-04 22:32:00,
2013-02-04 16:41:00,8.0,5.0,-100.00,SE,145,21.0,27.0,85,0.00,,,0.00,,2013-02-04 22:41:00,
2013-02-04 16:51:00,8.0,5.0,-100.00,SSE,150,22.0,27.0,85,0.00,,,0.00,,2013-02-04 22:51:00,
2013-02-04 17:01:00,8.0,5.0,-100.00,SE,145,22.0,27.0,86,0.00,,,0.00,,2013-02-04 23:01:00,
2013-02-04 17:11:00,8.0,5.0,-100.00,SSE,155,19.0,28.0,86,0.00,,,0.00,,2013-02-04 23:11:00,
2013-02-04 17:32:00,8.0,5.0,-100.00,SSE,150,22.0,27.0,86,0.00,,,0.00,,2013-02-04 23:32:00,
2013-02-04 17:42:00,9.0,5.0,-100.00,SSE,150,22.0,27.0,87,0.00,,,0.00,,2013-02-04 23:42:00,
2013-02-04 17:52:00,9.0,7.0,-100.00,SSE,150,23.0,30.0,87,0.00,,,0.00,,2013-02-04 23:52:00,
2013-02-04 18:01:00,9.0,7.0,-100.00,SSE,155,25.0,30.0,87,0.00,,,0.00,,2013-02-05 00:01:00,
2013-02-04 18:11:00,9.0,7.0,-100.00,SSE,150,23.0,31.0,87,0.00,,,0.00,,2013-02-05 00:11:00,
2013-02-04 18:21:00,10.0,7.0,-100.00,SSE,155,24.0,30.0,87,0.00,,,0.00,,2013-02-05 00:21:00,
2013-02-04 18:31:00,10.0,7.0,-100.00,SSE,160,24.0,31.0,88,0.00,,,0.00,,2013-02-05 00:31:00,
2013-02-04 18:42:00,10.0,7.0,-100.00,SSE,160,21.0,28.0,88,0.00,,,0.00,,2013-02-05 00:42:00,
2013-02-04 18:51:00,10.0,9.0,-100.00,SSE,165,23.0,29.0,88,0.00,,,0.00,,2013-02-05 00:51:00,
2013-02-04 19:01:00,11.0,9.0,-100.00,SSE,160,23.0,30.0,89,0.00,,,0.00,,2013-02-05 01:01:00,
2013-02-04 19:11:00,11.0,9.0,-100.00,SSE,160,22.0,30.0,89,0.00,,,0.00,,2013-02-05 01:11:00,
2013-02-04 19:22:00,11.0,9.0,-100.00,SSE,160,22.0,30.0,89,0.00,,,0.00,,2013-02-05 01:22:00,
2013-02-04 19:32:00,11.0,9.0,-100.00,SSE,165,21.0,31.0,89,0.00,,,0.00,,2013-02-05 01:32:00,
2013-02-04 19:42:00,11.0,9.0,-100.00,SSE,165,22.0,29.0,89,0.00,,,0.00,,2013-02-05 01:42:00,
2013-02-04 19:51:00,11.0,9.0,-100.00,SSE,165,22.0,29.0,89,0.00,,,0.00,,2013-02-05 01:51:00,
2013-02-04 20:01:00,11.0,9.0,-100.00,SSE,165,22.0,29.0,89,0.00,,,0.00,,2013-02-05 02:01:00,
2013-02-04 20:11:00,12.0,10.0,-100.00,South,170,22.0,29.0,89,0.00,,,0.00,,2013-02-05 02:11:00,
2013-02-04 20:21:00,12.0,10.0,-100.00,SSE,165,22.0,29.0,89,0.00,,,0.00,,2013-02-05 02:21:00,
2013-02-04 20:32:00,12.0,10.0,-100.00,SSE,165,22.0,29.0,89,0.00,,,0.00,,2013-02-05 02:32:00,
2013-02-04 20:42:00,13.0,10.0,-100.00,SSE,165,20.0,26.0,89,0.00,,,0.00,,2013-02-05 02:42:00,
2013-02-04 20:52:00,13.0,10.0,-100.00,SSE,165,17.0,24.0,89,0.00,,,0.00,,2013-02-05 02:52:00,
2013-02-04 21:02:00,13.0,10.0,-100.00,SSE,165,19.0,22.0,89,0.00,,,0.00,,2013-02-05 03:02:00,
2013-02-04 21:11:00,13.0,10.0,-100.00,SSE,160,17.0,22.0,89,0.00,,,0.00,,2013-02-05 03:11:00,
2013-02-04 21:21:00,13.0,10.0,-100.00,SSE,155,19.0,22.0,90,0.00,,,0.00,,2013-02-05 03:21:00,
2013-02-04 21:32:00,13.0,10.0,-100.00,SSE,155,19.0,22.0,90,0.00,,,0.00,,2013-02-05 03:32:00,
2013-02-04 21:42:00,13.0,10.0,-100.00,SSE,155,19.0,22.0,90,0.00,,,0.00,,2013-02-05 03:42:00,
2013-02-04 21:51:00,13.0,10.0,-100.00,SSE,155,19.0,22.0,90,0.00,,,0.00,,2013-02-05 03:51:00,
2013-02-04 22:01:00,13.0,10.0,-100.00,South,175,11.0,21.0,90,0.00,,,0.00,,2013-02-05 04:01:00,
2013-02-04 22:11:00,13.0,10.0,-100.00,SSE,165,17.0,20.0,90,0.00,,,0.00,,2013-02-05 04:11:00,
2013-02-04 22:21:00,13.0,10.0,-100.00,SSE,165,14.0,19.0,90,0.00,,,0.00,,2013-02-05 04:21:00,
2013-02-04 22:32:00,13.0,10.0,-100.00,South,175,13.0,17.0,90,0.00,,,0.00,,2013-02-05 04:32:00,
2013-02-04 22:42:00,14.0,12.0,-100.00,South,175,13.0,17.0,91,0.00,,,0.00,,2013-02-05 04:42:00,
2013-02-04 22:52:00,15.0,12.0,-100.00,South,175,11.0,13.0,91,0.00,,,0.00,,2013-02-05 04:52:00,
2013-02-04 23:02:00,16.0,14.0,-100.00,South,170,7.0,13.0,91,0.00,,,0.00,,2013-02-05 05:02:00,
2013-02-04 23:11:00,16.0,14.0,-100.00,SSE,165,10.0,12.0,91,0.00,,,0.00,,2013-02-05 05:11:00,
2013-02-04 23:21:00,17.0,16.0,-100.00,South,190,7.0,8.0,91,0.00,,,0.00,,2013-02-05 05:21:00,
2013-02-04 23:32:00,17.0,16.0,-100.00,South,190,7.0,7.0,91,0.00,,,0.00,,2013-02-05 05:32:00,
2013-02-04 23:42:00,18.0,16.0,-100.00,South,190,7.0,9.0,91,0.00,,,0.00,,2013-02-05 05:42:00,
2013-02-04 23:52:00,19.0,18.0,-100.00,SW,220,9.0,11.0,91,0.00,,,0.00,,2013-02-05 05:52:00,